Location: Austin
(30.3000°N, 97.7500°W)
Time: 07:33:27
(UTC-05:00)

Fermi - Pass Details

Date: 16 June 2025
Orbit: 496 x 508 km, 25.6° (Epoch: 07 July)

Event Time Altitude Azimuth Distance (km) Brightness Sun altitude
Exits shadow 04:55:45 38° 202° (SSW) 768 4.1 -17.4°
Maximum altitude 04:56:11 40° 183° (S) 745 4.1 -17.3°
Drops below altitude 10° 04:59:53 10° 113° (ESE) 1,702 6.6 -16.7°
Sets 05:02:12 0° 106° (ESE) 2,588 7.7 -16.3°
